Temperature
19 19 19 19 19 19 19 19 19 19 19 19 19 19 19 19 19 19 19 18 18 18 18 18 18 18 18 18 18 18 18 17 17 17 17 17 17 17 17 17 17 17 17
19 19 19 19 19 19 19 19 19 19 19 19 19 19 19 19 19 19 18 18 18 18 18 18 18 18 18 18 18 17 17 17 17 17 17 17 17 17 17 17 17 17 17
20 19 19 19 19 19 19 19 19 19 19 19 19 19 19 19 19 18 18 18 18 18 18 18 18 18 18 17 17 17 17 17 17 17 17 17 17 17 17 17 17 17 17
20 19 19 19 19 19 19 19 19 19 19 19 19 19 19 19 18 18 18 18 18 18 18 17 17 18 17 17 17 17 17 17 17 17 17 17 17 17 17 17 17 17 16
20 20 19 19 19 19 19 19 19 19 19 19 19 19 18 18 18 18 18 18 18 17 17 17 17 17 17 17 17 17 17 17 17 17 17 17 17 17 17 17 17 16 16
20 19 19 19 19 19 19 19 19 19 19 19 19 18 18 18 18 18 18 18 18 17 17 17 17 17 17 17 17 17 17 17 17 17 17 17 17 17 17 17 17 17 16
20 19 19 19 19 19 19 19 19 19 19 19 19 18 18 18 18 18 18 18 18 18 17 17 17 17 17 17 17 17 17 17 17 17 17 17 17 17 17 17 17 16 16
20 20 19 19 19 19 19 19 19 19 19 19 18 18 18 18 18 18 18 18 18 18 17 17 17 17 17 17 17 17 17 17 17 17 17 17 17 17 17 17 17 16 16
20 20 19 19 19 19 19 19 19 19 19 18 18 18 18 18 18 18 18 18 18 18 17 17 17 17 17 17 17 17 17 17 17 17 17 17 17 17 17 17 16 16 16
20 20 19 19 19 19 19 19 19 19 18 18 18 18 18 18 18 18 18 18 18 17 17 17 17 17 17 17 17 17 17 17 17 17 17 17 17 17 17 17 16 16 16
19 19 19 19 19 19 19 19 18 18 18 18 18 18 18 18 18 18 17 17 17 17 17 17 17 17 17 17 17 17 17 17 17 17 17 17 17 17 17 16 16 16 16
19 19 19 19 19 19 19 18 18 18 18 18 18 18 18 18 18 18 18 17 17 17 17 17 17 17 17 17 17 17 17 17 17 17 17 17 17 17 17 16 16 16 16
20 20 20 19 19 19 19 19 18 18 18 18 18 18 18 18 18 18 18 17 17 17 17 17 17 17 17 17 17 17 17 17 17 17 17 17 17 17 17 16 16 16 16
20 20 20 19 19 19 19 19 19 18 18 18 18 18 18 18 18 18 18 18 17 17 17 17 17 17 17 17 17 17 17 17 17 17 17 17 17 17 17 16 16 16 16
21 20 20 20 19 19 19 19 18 18 18 18 18 18 18 18 18 18 18 18 17 17 17 17 17 17 17 17 17 17 17 17 17 17 17 17 17 17 17 16 16 16 16
21 21 20 20 19 19 19 19 18 18 18 18 18 18 18 18 18 17 17 17 17 17 17 17 17 17 17 17 17 17 17 17 17 17 17 17 17 17 16 16 16 16 16
21 20 20 20 20 19 19 18 18 18 18 18 18 18 18 17 17 17 17 17 17 17 17 17 17 17 17 17 17 17 17 17 17 17 17 17 17 16 16 16 16 16 16
21 20 20 20 19 19 19 18 18 18 18 18 18 18 17 17 17 17 17 17 17 17 17 17 17 17 17 17 17 17 17 17 17 17 17 16 17 17 16 16 16 16 16
21 20 20 20 19 19 19 18 18 18 18 18 17 17 17 17 17 17 17 17 17 17 17 17 17 17 17 17 17 17 17 16 16 16 16 16 16 16 16 16 16 16 16
21 20 20 19 19 19 18 18 18 18 17 17 17 17 17 17 17 17 17 17 17 17 17 17 17 17 17 17 17 17 17 16 16 16 16 16 16 16 16 16 16 16 16
20 20 20 19 19 19 18 18 18 18 17 17 17 17 17 17 17 17 17 17 17 17 17 17 17 17 17 17 17 17 17 17 17 17 16 16 16 16 16 16 16 16 16
21 20 20 19 19 19 18 18 18 18 18 17 17 17 17 17 17 17 17 17 17 17 17 17 17 17 17 17 17 17 17 17 17 17 17 17 16 16 16 16 16 16 16
20 20 20 19 19 19 18 18 17 17 17 17 17 17 17 17 17 17 17 17 17 17 17 17 17 17 17 17 17 17 17 17 17 17 17 17 17 17 17 16 16 16 16
21 20 20 19 19 18 18 18 17 17 17 17 17 17 17 17 17 17 17 17 17 17 17 17 17 17 17 17 17 17 17 17 17 17 17 17 17 17 17 17 17 16 16
21 20 20 19 19 18 18 18 17 17 17 17 17 17 17 17 17 17 17 17 17 17 17 17 17 17 17 17 17 17 17 17 17 17 17 17 17 17 17 17 17 17 17
20 20 19 19 19 18 18 18 17 17 17 17 17 17 17 17 17 17 17 17 17 17 17 17 17 17 17 17 17 17 17 17 17 17 17 17 17 17 17 17 17 17 17
Wind_Speed
6 10 16 16 16 17 17 18 18 18 18 18 18 18 17 17 16 16 16 15 15 15 15 15 15 15 15 15 16 16 16 16 16 16 16 17 17 17 17 18 17 16 19
10 13 17 16 16 17 17 17 17 17 17 17 17 17 16 16 16 15 15 15 15 15 15 15 15 15 15 15 16 16 16 16 16 16 16 16 17 17 17 17 16 16 18
12 14 16 16 16 16 16 16 16 16 17 16 16 16 16 15 15 15 15 15 15 15 15 15 15 15 15 15 15 15 15 15 16 16 15 14 15 16 17 17 17 18 18
13 14 15 17 16 16 16 15 16 16 16 15 15 15 15 14 14 15 15 15 15 15 15 15 15 15 15 15 15 15 15 16 16 15 13 12 13 16 16 16 16 17 17
12 14 16 17 16 16 15 15 15 15 15 15 14 14 14 14 14 14 14 14 15 15 15 15 15 14 14 14 14 14 14 15 15 13 12 12 13 15 16 16 16 16 16
10 13 16 17 16 16 15 14 14 14 14 14 14 13 13 14 14 14 14 14 14 14 14 14 14 14 13 13 13 14 14 14 13 12 12 12 13 15 15 15 15 15 15
10 12 16 17 16 15 14 14 13 13 13 13 13 13 13 13 13 13 13 14 14 14 13 13 13 13 12 13 13 13 14 14 12 11 11 11 12 14 14 14 14 14 14
10 11 15 17 16 15 14 14 13 13 13 12 13 12 12 12 12 12 12 13 13 13 13 12 12 11 11 12 12 13 14 13 12 11 10 10 13 14 14 14 14 14 14
9 9 10 14 15 15 14 13 13 12 12 12 12 12 12 12 11 11 11 12 12 12 12 11 11 10 10 12 13 12 12 12 11 9 10 9 12 13 13 13 13 13 13
7 6 7 10 11 12 12 13 12 12 12 12 11 11 11 11 11 10 10 10 11 11 11 11 11 10 10 11 12 11 12 11 9 9 8 9 11 11 12 12 12 12 12
9 6 6 7 9 10 11 11 12 11 11 11 10 11 10 9 9 8 8 9 9 10 10 10 10 10 10 10 11 11 11 9 9 8 7 9 10 10 11 11 11 11 11
12 9 6 7 8 9 9 9 9 9 9 8 8 9 9 8 7 6 7 7 8 8 8 9 9 9 9 8 9 9 8 8 8 7 7 9 10 10 10 10 10 10 10
12 11 8 7 8 8 6 8 7 8 8 7 8 9 8 7 5 5 4 5 5 6 6 7 7 7 7 6 6 7 7 7 6 6 7 9 9 10 10 10 10 10 10
11 11 9 8 7 7 7 6 7 7 6 6 6 8 7 5 4 3 3 4 4 4 4 5 5 5 5 5 6 7 7 6 6 5 7 9 9 9 9 9 9 9 9
11 10 9 8 8 7 6 6 6 6 6 6 6 7 7 5 3 2 2 3 3 3 3 3 3 3 3 4 5 6 6 6 6 6 6 8 9 9 9 9 9 9 8
12 10 9 9 8 8 6 5 5 7 7 7 6 7 8 7 5 3 2 2 2 2 3 3 2 2 2 3 3 4 5 6 6 6 5 7 8 9 9 9 9 9 9
11 10 10 10 8 8 7 6 7 7 8 6 7 8 8 8 7 5 3 2 2 3 3 3 3 3 2 2 2 3 4 5 6 6 5 5 6 7 8 8 8 9 9
10 11 11 11 10 9 7 7 6 8 8 7 8 8 9 9 9 6 4 3 4 3 3 3 2 2 2 2 2 1 2 3 5 5 5 5 5 6 7 8 9 9 9
12 11 11 10 10 10 8 6 6 7 7 8 8 8 9 9 9 7 5 4 4 3 2 2 2 2 2 2 2 1 1 2 3 5 5 6 7 7 7 8 9 10 10
10 10 11 10 9 9 6 5 4 4 4 6 8 9 10 9 10 8 6 5 5 3 2 2 2 2 2 2 2 1 0 1 2 3 5 6 7 8 8 8 8 9 10
9 10 11 10 9 8 6 6 5 5 5 4 6 9 10 9 10 9 5 5 5 4 4 4 3 3 2 2 2 1 2 1 2 3 4 5 7 9 9 9 9 9 9
10 11 10 10 10 9 7 6 4 4 4 4 4 6 9 9 10 9 7 5 5 4 4 4 3 3 2 2 3 2 1 2 2 3 3 5 6 7 8 10 10 10 10
9 10 10 10 9 9 7 5 3 3 2 2 3 3 6 9 9 8 9 7 6 5 5 5 5 5 3 2 2 3 3 3 2 2 3 4 5 5 7 9 11 11 12
9 8 8 8 8 7 8 7 7 6 5 5 5 4 4 6 8 8 8 8 7 5 6 6 5 4 5 3 2 1 2 3 2 2 2 2 4 5 6 7 9 11 12
8 7 7 7 7 7 8 8 7 5 4 3 3 4 4 4 5 7 8 7 6 5 6 5 5 5 4 4 4 2 2 1 1 2 2 2 2 3 4 6 7 9 11
6 6 6 7 6 7 8 8 7 7 6 5 5 5 4 3 3 5 6 7 6 5 6 6 5 6 5 4 4 3 3 3 3 3 3 3 3 3 3 4 5 7 9
Wind_Direction
147 148 137 129 122 117 113 110 108 108 109 109 111 112 112 112 112 110 107 105 104 104 103 103 104 104 107 110 110 110 111 112 111 111 110 110 110 110 109 108 108 109 112
143 147 140 133 126 121 116 114 112 111 111 111 112 112 112 112 112 110 108 107 106 106 105 105 106 107 108 109 111 111 112 112 110 110 109 109 111 110 109 109 111 114 114
137 144 141 136 129 124 120 117 114 114 113 114 114 113 113 112 112 111 109 109 108 107 106 106 107 107 108 108 110 110 110 110 108 106 102 102 108 110 111 112 113 113 114
137 140 142 139 133 128 124 121 118 116 116 116 116 115 114 113 112 111 111 110 108 108 108 107 107 107 108 109 109 108 109 109 107 103 99 103 109 113 112 112 113 115 116
134 139 146 141 137 133 129 126 123 121 119 118 117 117 116 114 113 112 110 110 108 107 107 107 106 106 108 110 110 109 109 108 106 101 97 100 109 114 114 114 114 116 116
131 141 149 144 141 137 134 131 128 126 123 121 119 118 117 116 114 112 111 109 108 107 106 106 106 106 108 109 110 111 110 108 102 99 100 105 111 116 117 116 116 116 116
136 144 150 147 146 142 139 136 132 129 126 125 123 121 119 118 115 113 112 111 110 108 107 107 106 106 107 111 114 115 114 112 106 103 103 108 116 119 118 118 117 117 117
141 144 151 151 151 148 145 142 138 134 131 129 127 125 123 121 119 117 114 113 112 109 108 107 106 106 111 113 115 117 121 118 115 110 107 108 116 119 120 120 119 118 119
136 136 143 153 156 155 151 147 143 140 138 134 131 130 127 125 123 121 118 116 113 112 111 109 106 104 109 115 117 120 122 119 115 117 116 113 118 121 122 122 122 121 121
132 133 138 146 151 152 153 152 149 146 144 141 139 136 133 130 126 122 117 116 115 113 112 110 105 101 103 113 118 124 124 119 116 116 119 125 127 127 127 127 126 125 124
155 147 143 143 145 148 152 157 154 151 150 146 144 141 129 119 119 119 121 121 119 115 111 109 104 98 98 109 118 124 123 122 123 123 129 137 136 133 132 131 130 128 127
172 169 158 152 148 149 158 154 152 147 145 139 136 129 122 119 121 124 133 132 126 119 113 108 103 94 93 101 112 116 122 129 130 135 143 145 143 139 137 136 131 131 131
175 175 168 159 153 152 149 146 144 139 137 136 134 132 129 122 116 114 111 104 103 101 93 93 90 89 97 107 113 119 128 132 136 143 152 153 149 145 143 142 139 137 136
175 179 170 165 158 159 151 147 143 141 142 143 145 145 138 127 119 123 114 106 97 100 97 92 93 94 101 119 133 135 141 145 147 149 159 160 157 154 152 150 150 147 147
179 180 176 169 167 162 153 158 157 155 158 160 160 159 156 149 148 147 140 132 128 121 116 106 97 97 109 130 146 149 152 156 159 159 165 169 167 166 165 165 163 160 160
184 182 178 177 174 166 164 163 163 165 166 168 175 176 176 173 167 166 162 160 163 156 146 133 123 116 115 130 144 154 157 163 169 169 175 180 181 180 179 179 177 175 174
183 179 183 185 177 174 171 171 171 174 173 180 189 190 189 185 179 177 174 189 197 175 152 133 117 103 105 116 131 152 161 172 177 181 184 188 191 193 192 192 191 190 190
178 180 187 192 183 181 177 173 171 177 180 190 194 195 198 193 185 177 178 196 196 174 152 138 131 114 107 116 133 157 165 180 191 191 195 199 202 205 208 209 207 205 206
180 180 186 188 183 183 177 174 175 176 179 188 191 195 200 195 188 180 186 197 184 166 164 167 140 134 138 140 154 147 174 203 207 208 209 213 215 217 220 225 223 220 220
176 176 184 185 182 175 165 158 165 173 183 188 191 198 197 194 190 183 186 189 178 165 168 155 136 116 125 144 142 111 331 242 225 226 226 224 225 226 227 230 231 232 232
171 176 183 184 179 172 169 173 179 191 191 195 199 199 196 195 191 183 185 180 179 180 180 164 142 135 123 129 102 45 348 295 244 237 233 233 233 232 231 233 235 236 238
179 179 180 184 180 181 182 177 174 168 185 195 197 197 197 195 191 190 184 183 182 174 170 169 153 142 145 152 140 125 349 328 292 243 229 231 236 233 234 236 234 235 237
178 183 185 185 183 182 174 154 138 125 128 162 192 203 204 198 197 195 190 184 184 178 184 186 174 164 168 176 171 154 163 229 280 293 249 236 234 230 237 238 237 236 237
183 180 178 178 181 178 170 171 170 180 189 198 193 195 197 198 200 200 194 189 188 185 187 192 185 177 162 178 192 199 181 165 175 285 303 266 247 238 238 240 240 237 235
174 174 172 169 177 177 177 182 182 189 193 184 172 179 194 200 205 201 195 191 192 193 192 190 180 183 179 176 179 173 165 144 158 181 264 296 283 250 240 239 241 241 238
160 165 168 172 178 178 182 187 191 190 184 179 182 187 196 202 207 203 196 193 194 195 194 194 190 186 189 181 181 180 176 176 191 188 219 251 268 278 260 242 239 241 239
Height
1527 1530 1532 1533 1535 1536 1537 1538 1539 1539 1540 1541 1542 1543 1544 1545 1546 1546 1547 1548 1549 1550 1551 1552 1553 1554 1555 1555 1556 1557 1558 1560 1561 1562 1563 1564 1565 1566 1567 1568 1569 1570 1572
1527 1531 1533 1535 1537 1538 1539 1540 1541 1542 1543 1544 1545 1546 1546 1547 1548 1549 1549 1550 1551 1552 1553 1554 1555 1556 1557 1558 1559 1560 1561 1562 1563 1564 1565 1566 1567 1568 1569 1570 1572 1573 1574
1528 1532 1535 1537 1538 1540 1541 1542 1543 1544 1545 1546 1547 1548 1549 1550 1550 1551 1552 1553 1553 1554 1555 1556 1557 1558 1559 1560 1561 1562 1563 1565 1566 1567 1568 1568 1570 1571 1572 1573 1575 1576 1577
1530 1533 1536 1538 1540 1542 1543 1544 1545 1546 1547 1548 1549 1550 1551 1552 1553 1553 1554 1555 1556 1557 1558 1559 1560 1561 1561 1562 1564 1565 1566 1567 1568 1569 1570 1571 1572 1574 1575 1576 1577 1578 1580
1532 1535 1538 1540 1542 1543 1545 1546 1548 1549 1550 1551 1552 1553 1554 1554 1555 1556 1557 1558 1558 1559 1560 1561 1562 1563 1564 1565 1566 1567 1568 1569 1570 1571 1572 1573 1575 1576 1577 1579 1580 1581 1582
1533 1536 1539 1541 1543 1545 1547 1548 1550 1551 1552 1553 1554 1555 1556 1557 1558 1558 1559 1560 1561 1562 1563 1564 1565 1566 1567 1568 1569 1570 1571 1572 1573 1574 1575 1576 1577 1579 1580 1581 1582 1584 1585
1534 1538 1540 1543 1545 1547 1549 1550 1552 1553 1554 1555 1556 1557 1558 1559 1560 1561 1561 1562 1563 1564 1565 1567 1568 1569 1570 1571 1571 1572 1573 1574 1575 1576 1577 1578 1580 1581 1582 1583 1584 1586 1587
1536 1539 1541 1544 1546 1548 1550 1552 1553 1555 1556 1557 1558 1559 1560 1561 1562 1563 1564 1565 1566 1567 1568 1569 1570 1571 1572 1573 1574 1575 1575 1576 1577 1578 1579 1581 1582 1583 1584 1585 1586 1588 1589
1538 1540 1543 1545 1547 1550 1552 1553 1555 1556 1557 1559 1560 1561 1562 1563 1564 1565 1566 1567 1568 1569 1570 1571 1573 1574 1575 1576 1576 1577 1578 1579 1579 1581 1582 1583 1584 1585 1586 1587 1588 1589 1591
1539 1541 1544 1546 1548 1550 1553 1555 1556 1558 1559 1560 1561 1563 1564 1565 1566 1567 1568 1569 1570 1571 1573 1574 1575 1576 1577 1578 1579 1580 1580 1581 1582 1583 1584 1585 1586 1587 1588 1589 1590 1591 1592
1538 1541 1544 1547 1549 1551 1553 1556 1557 1559 1561 1562 1563 1564 1565 1566 1568 1569 1570 1571 1573 1574 1575 1576 1577 1578 1579 1580 1581 1582 1582 1583 1584 1584 1585 1586 1587 1588 1589 1591 1592 1593 1594
1537 1541 1544 1547 1549 1552 1554 1556 1558 1560 1561 1563 1564 1565 1567 1568 1569 1571 1572 1573 1574 1575 1576 1577 1579 1580 1581 1582 1583 1584 1584 1585 1586 1586 1587 1588 1589 1590 1591 1592 1593 1594 1595
1537 1540 1544 1547 1549 1552 1554 1556 1558 1560 1562 1564 1565 1567 1568 1569 1571 1572 1573 1574 1576 1577 1578 1579 1580 1582 1583 1584 1585 1585 1586 1586 1587 1588 1589 1589 1590 1591 1592 1593 1594 1595 1596
1537 1540 1543 1546 1549 1552 1554 1556 1559 1561 1562 1564 1566 1567 1569 1571 1572 1573 1575 1576 1577 1578 1580 1581 1582 1583 1584 1585 1586 1587 1587 1588 1588 1589 1590 1591 1592 1592 1593 1594 1595 1596 1597
1537 1540 1543 1546 1549 1552 1554 1556 1559 1561 1563 1565 1567 1568 1570 1571 1573 1574 1576 1577 1578 1580 1581 1582 1583 1584 1585 1586 1587 1588 1588 1589 1589 1590 1591 1592 1592 1593 1594 1595 1596 1597 1598
1537 1540 1543 1546 1549 1551 1553 1556 1559 1561 1563 1565 1567 1569 1570 1572 1574 1575 1577 1578 1579 1581 1582 1583 1584 1585 1586 1587 1588 1589 1589 1590 1590 1591 1591 1592 1593 1594 1595 1595 1596 1597 1598
1537 1540 1543 1546 1548 1551 1553 1556 1559 1561 1563 1565 1567 1569 1571 1572 1574 1576 1577 1578 1580 1581 1582 1584 1585 1586 1587 1588 1589 1589 1590 1591 1591 1591 1592 1593 1593 1594 1595 1596 1596 1597 1598
1536 1539 1542 1545 1547 1550 1553 1555 1558 1561 1563 1565 1567 1569 1571 1572 1574 1576 1577 1579 1580 1581 1583 1584 1585 1586 1587 1588 1589 1590 1590 1591 1591 1592 1592 1593 1593 1594 1595 1595 1596 1597 1598
1535 1538 1541 1544 1546 1549 1552 1554 1557 1560 1562 1564 1566 1568 1570 1572 1574 1575 1577 1578 1580 1581 1582 1584 1584 1586 1587 1588 1589 1589 1590 1591 1591 1592 1592 1593 1593 1594 1594 1595 1596 1596 1597
1534 1536 1539 1542 1545 1547 1550 1553 1555 1558 1560 1563 1565 1567 1569 1571 1573 1575 1576 1578 1579 1580 1582 1583 1584 1585 1586 1587 1588 1589 1590 1590 1590 1591 1592 1592 1593 1593 1594 1594 1595 1596 1596
1531 1534 1536 1539 1542 1545 1548 1550 1552 1555 1558 1560 1563 1565 1568 1570 1572 1573 1575 1577 1578 1580 1581 1582 1583 1584 1586 1587 1588 1588 1589 1589 1589 1590 1590 1591 1592 1592 1593 1593 1594 1594 1595
1529 1531 1534 1537 1540 1543 1545 1548 1551 1554 1556 1558 1561 1563 1565 1568 1570 1572 1573 1575 1577 1578 1580 1581 1582 1583 1585 1586 1587 1587 1588 1589 1588 1588 1589 1589 1590 1591 1591 1592 1592 1593 1593
1527 1530 1532 1534 1537 1541 1544 1546 1549 1552 1554 1556 1558 1561 1563 1565 1568 1569 1571 1573 1575 1576 1578 1579 1581 1582 1583 1585 1586 1587 1587 1586 1586 1587 1587 1588 1588 1589 1590 1590 1591 1591 1591
1526 1528 1531 1533 1536 1538 1541 1543 1546 1548 1550 1553 1555 1558 1561 1563 1565 1567 1569 1571 1573 1574 1576 1577 1579 1580 1582 1583 1584 1585 1586 1585 1586 1585 1586 1586 1586 1587 1587 1588 1589 1589 1589
1525 1527 1530 1532 1534 1537 1539 1542 1544 1546 1549 1551 1553 1556 1558 1560 1562 1564 1566 1568 1570 1572 1573 1575 1577 1578 1579 1581 1582 1583 1583 1584 1584 1584 1584 1584 1585 1585 1585 1586 1586 1587 1587
1524 1527 1529 1531 1533 1535 1538 1540 1542 1544 1546 1548 1551 1553 1555 1557 1559 1561 1563 1565 1567 1569 1570 1572 1574 1575 1577 1578 1579 1580 1581 1581 1581 1582 1582 1582 1582 1583 1583 1583 1583 1584 1584